Regional Weather Roundup
Issued by NWS

Home | Current Version | Previous Version | Graphics & Text | Print | Product List | Glossary On
Versions: 1 2 3 4 5 6 7 8 9 10 11 12 13 14 15 16 17 18 19 20 21 22 23 24 25 26 27 28 29 30 31 32 33 34 35 36 37 38 39 40 41 42 43 44 45 46 47 48 49 50
000
ASUS43 KDTX 282310
RWRMI
MICHIGAN HOURLY REGIONAL WEATHER ROUNDUP
NATIONAL WEATHER SERVICE DETROIT/PONTIAC MI
600 PM EST FRI NOV 28 2014

NOTE: "FAIR" INDICATES FEW OR NO CLOUDS BELOW 12,000 FEET WITH NO
SIGNIFICANT WEATHER AND/OR OBSTRUCTION TO VISIBILITY.

MIZ047>049-052>055-059>063-066>070-074>076-081>083-290000-
SOUTHEAST LOWER MICHIGAN

CITY           SKY/WX    TMP DP  RH WIND       PRES   REMARKS
ADRIAN         CLOUDY    26  21  81 S7        30.15F
ALMA           FLURRIES  24  21  89 SE6       30.10F
ANN ARBOR      LGT SNOW  25  21  85 S6        30.15S FOG
BAD AXE        FLURRIES  23  19  85 S3        30.16S
DETROIT CITY   LGT SNOW  27  21  78 S5        30.18F
DETROIT        LGT SNOW  25  21  85 S6        30.18F FOG
FLINT          FLURRIES  26  20  77 SE7       30.14S
GROSSE ILE     LGT SNOW  27  23  86 S13       30.16F
HILLSDALE      CLOUDY    26  21  83 S8        30.08F
HOWELL         LGT SNOW  24  20  85 SE10      30.11F

CITY           SKY/WX    TMP DP  RH WIND       PRES   REMARKS
JACKSON        CLOUDY    25  20  81 SE12      30.10F
LAMBERTVILLE   CLOUDY    30  21  69 CALM      30.16F
LANSING        CLOUDY    25  18  74 S14       30.10F
LAPEER         NOT AVBL
MASON          CLOUDY    25  21  84 SE7       30.10F
MONROE         FLURRIES  27  23  86 S6        30.15F
MT. CLEMENS    LGT SNOW  25  23  93 SW6       30.16F
PONTIAC        FLURRIES  24  19  81 S9        30.13S
PORT HOPE        N/A     23  15  71 CALM      30.16S
PORT HURON     LGT SNOW  25  19  80 S6        30.18F
TRI CITIES     LGT SNOW  26  21  81 SE10      30.13F
YPSILANTI      LGT SNOW  28  21  75 SE6       30.16F
$$
MIZ043>046-050>051-056>058-064>065-071>073-077>080-290000-
SOUTHWEST LOWER MICHIGAN

CITY           SKY/WX    TMP DP  RH WIND       PRES   REMARKS
BATTLE CREEK   CLOUDY    27  18  69 SE9       30.07F
BENTON HARBOR  MOCLDY    27  19  72 SE10      30.04F
BIG RAPIDS     LGT SNOW  23  21  91 SE9       30.03F
COLDWATER      CLOUDY    29  21  74 SE7       30.08S
HOLLAND        CLOUDY    27  18  69 SE10      30.04F
GRAND RAPIDS   CLOUDY    26  18  71 SE9       30.05F
KALAMAZOO      CLOUDY    27  19  72 SE8G16    30.06F
MARSHALL       CLOUDY    25  19  77 SE8       30.07F
MUSKEGON       CLOUDY    26  18  71 SE10      30.04S
$$
MIZ016>042-290000-
NORTHERN LOWER MICHIGAN

CITY           SKY/WX    TMP DP  RH WIND       PRES   REMARKS
ALPENA         FLURRIES  21  16  81 S8        30.12F
BEAVER ISLAND  FLURRIES  25  24  96 CALM      30.04S
BELLAIRE       FLURRIES  24  19  81 SE8       30.08S
CADILLAC       LGT SNOW  22  19  91 SE9       30.01S
CHARLEVOIX     CLOUDY    23  20  90 SE8       30.08F
FRANKFORT      LGT SNOW  25  23  92 SE9       30.02S
GAYLORD        CLOUDY    20  16  84 S8        30.04F
GRAYLING       CLOUDY    20  17  88 SE6       30.06S
HARBOR SPRINGS FLURRIES  23  18  83 E3        30.07R
HOUGHTON LAKE  LGT SNOW  20  17  88 SE7       30.06F FOG
MANISTEE       CLOUDY    25  19  80 SE10      30.03S
OSCODA         LGT SNOW  23  19  85 CALM      30.13F
PELLSTON       FLURRIES  23  17  78 S7        30.08R
TRAVERSE CITY  FLURRIES  25  18  74 SE6       30.04S
$$
MIZ007>008-015-290000-
EASTERN UPPER MICHIGAN

CITY           SKY/WX    TMP DP  RH WIND       PRES   REMARKS
KINROSS        CLOUDY    18  18 100 E6        30.07S
MACKINAC ISLAN CLOUDY    24  18  76 S7        30.06S
NEWBERRY       LGT SNOW  18  16  93 E5        30.03F
S. S. MARIE    FLURRIES  18  13  80 E5        30.05F
$$
MIZ004>006-011>014-085-290000-
CENTRAL UPPER MICHIGAN

CITY           SKY/WX    TMP DP  RH WIND       PRES   REMARKS
MANISTIQUE     FLURRIES  20  18  93 E5        30.02F
ESCANABA       CLOUDY    21  18  86 NE5       29.99F
MENOMINEE      CLOUDY    23  19  86 NE5       29.97F
SAWYER-GWINN   CLOUDY    16  12  86 S6        29.96F
$$
MIZ001>003-009>011-084-290000-
WESTERN UPPER MICHIGAN

CITY           SKY/WX    TMP DP  RH WIND       PRES   REMARKS
IRON MOUNTAIN  LGT SNOW  14  10  84 SE3       29.94F FOG
HOUGHTON       CLOUDY    17   7  64 E3        29.93F
COPPER HARBOR    N/A     16  10  77 S5        29.98F
IRONWOOD       MOCLDY    16   9  73 E3        29.85F
$$

ABBREVIATIONS USED IN REMARKS
   TC - TEMPERATURE IN CELSIUS
  WCI - WIND CHILL INDEX
   HX - HEAT INDEX
  VSB - VISIBILITY



USA.gov is the U.S. government's official web portal to all federal, state and local government web resources and services.